Location: Ca�n Batista
(41.4099°N, 1.7752°E)
Time: 14:45:36
(UTC+00:00)

SJ-6B - Pass Details

Date: 03 March 2021
Orbit: 509 x 581 km, 97.6° (Epoch: 21 April)

Event Time Altitude Azimuth Distance (km) Brightness Sun altitude
Exits shadow 19:21:29 44° 87° (E) 808 3.2 -18.7°
Maximum altitude 19:21:48 45° 73° (ENE) 796 3.2 -18.7°
Drops below altitude 10° 19:25:41 10° 1° (N) 1,879 5.6 -19.4°
Sets 19:27:53 0° 355° (N) 2,771 6.6 -19.8°
